Volver al catálogo

COSMOS 252

ActivoMilitarUNKNOWN
NORAD 3530·PAYLOAD·🇷🇺 Russia

Lanzado Nov 1, 1968 desde Baikonur Cosmodrome

Loading…

Próximos Pases (próximas 24 horas)

TLE

ActualizadoSource: Space-Track

Época: Sep 14, 2026, 13:02 UTC

1 03530U 68097A   26257.54313567 -.00000040  00000-0  26143-4 0  9992
2 03530  62.3167 292.6781 1013461  73.3390 297.6266 12.88325173717467

Sigue COSMOS 252 en tiempo real con AllMySat

Download on the App Store